{"data":{"norad_id":61191,"epoch":"2026-05-25T05:24:02.743200Z","epoch_age_seconds":53004,"freshness":"FRESH","line1":"1 61191U 24169C   26145.22503175  .00002755  00000+0  17935-3 0  9999","line2":"2 61191  97.5552 234.9210 0014300  33.2705 326.9419 15.08708258 92360","mean_motion":15.08708258,"eccentricity":0.00143,"inclination_deg":97.5552,"raan_deg":234.921,"arg_perigee_deg":33.2705,"mean_anomaly_deg":326.9419,"bstar":0.00017935,"rev_number":9236,"period_min":95.445888385931,"perigee_km":530.25295602163,"apogee_km":550.03924569007,"semimajor_km":6918.2831008558,"source":"CELESTRAK","updated_at":"2026-05-25T13:38:02.312034Z"}}